Simultaneous Nadir Overpasses (SNOs) Predictions

Prediction of SNOs between METOP-B and NOAA-19 Satellite Orbit:

Table of predicted SNOs for the next 14.0 days since TLE Epoch: 6/1/2018
Index Date (METOP-B) Time (METOP-B) Lat,Lon (METOP-B) SZA (METOP-B ) Date (NOAA-19) Time (NOAA-19) Lat,Lon (NOAA-19) SZA (NOAA-19 ) Distance(km) Time Diff (sec)
1 06/06/2018 16:07:38 78.37, -52.18 55.81 06/06/2018 16:06:27 78.37, -52.20 55.80 0.48 71
2 06/06/2018 16:58:20 -78.35, 115.07 124.21 06/06/2018 16:57:32 -78.35, 115.17 124.22 2.17 48
3 06/06/2018 17:49:00 78.35, -77.63 55.78 06/06/2018 17:48:28 78.36, -77.66 55.79 1.93 32
4 06/06/2018 18:39:42 -78.34, 89.63 124.24 06/06/2018 18:39:33 -78.34, 89.70 124.23 1.81 9
5 06/06/2018 19:30:22 78.33,-103.07 55.75 06/06/2018 19:30:29 78.36,-103.12 55.78 3.39 7
6 06/06/2018 20:21:04 -78.32, 64.19 124.27 06/06/2018 20:21:34 -78.34, 64.24 124.25 2.46 30
7 06/06/2018 21:11:44 78.31,-128.51 55.72 06/06/2018 21:12:29 78.32,-128.36 55.74 3.50 45
8 06/06/2018 22:02:26 -78.30, 38.75 124.30 06/06/2018 22:03:35 -78.33, 38.77 124.26 3.61 69




NCC Satellite Simultaneous Nadir Overpasses (SNOs) Prediction Service
